Tracking 21611 objects as of 22-Oct-2020
HD Live streaming from Space Station
objects crossing your sky now

COSMOS 617

Track COSMOS 617 now!
10-day predictions
COSMOS 617 is classified as:


NORAD ID: 6985
Int'l Code: 1973-104A
Perigee: 1,341.0 km
Apogee: 1,490.5 km
Inclination: 74.0 °
Period: 114.0 minutes
Semi major axis: 7786 km
RCS: 0.6851 m2 (medium)
Launch date: December 19, 1973
Source: Commonwealth of Independent States (former USSR) (CIS)
Launch site: PLESETSK MISSILE AND SPACE COMPLEX (PKMTR)
aabbcc
Your satellite tracking list
Your tracking list is empty




NASA's NSSDC Master Catalog

Two Line Element Set (TLE):
1  6985U 73104A   20295.27539600 -.00000018 +00000-0 -10810-4 0  9998
2  6985 074.0296 332.8857 0095972 014.5072 055.7342 12.63485055160412
Source of the keplerian elements: AFSPC